EN

Hourly Weather Abaturovo

Today, 13 June, Sunday

Time Temperature Precipitation Wind Pressure Humidity
00:00 +14°C° 0 mm 1 mps 743 mmHg 95%
01:00 +14°C° 0 mm 1 mps 742 mmHg 96%
02:00 +13°C° 0 mm 1 mps 742 mmHg 96%
03:00 +14°C° 0 mm 1 mps 742 mmHg 95%
04:00 +14°C° 0 mm 1 mps 742 mmHg 94%
05:00 +15°C° 0 mm 1 mps 742 mmHg 93%
06:00 +18°C° 0 mm 1 mps 742 mmHg 85%
07:00 +19°C° 0 mm 1 mps 743 mmHg 77%
08:00 +20°C° 0 mm 2 mps 743 mmHg 69%
09:00 +21°C° 0.3 mm 2 mps 743 mmHg 65%
10:00 +23°C° 0.3 mm 2 mps 743 mmHg 61%
11:00 +24°C° 0.3 mm 2 mps 742 mmHg 57%
12:00 +25°C° 0.3 mm 2 mps 742 mmHg 55%
13:00 +25°C° 0.3 mm 2 mps 742 mmHg 53%
14:00 +26°C° 0.3 mm 2 mps 742 mmHg 52%
15:00 +25°C° 0 mm 2 mps 742 mmHg 55%
16:00 +25°C° 0 mm 1 mps 742 mmHg 58%
17:00 +24°C° 0 mm 1 mps 742 mmHg 61%
18:00 +23°C° 0 mm 1 mps 743 mmHg 65%
19:00 +21°C° 0 mm 1 mps 743 mmHg 69%
20:00 +20°C° 0 mm 1 mps 743 mmHg 73%
21:00 +19°C° 0 mm 1 mps 744 mmHg 75%
22:00 +19°C° 0 mm 1 mps 744 mmHg 76%
23:00 +18°C° 0 mm 1 mps 744 mmHg 78%

Tomorrow, 14 June, Monday

Time Temperature Precipitation Wind Pressure Humidity
00:00 +16°C° 0 mm 1 mps 745 mmHg 81%
01:00 +16°C° 0 mm 1 mps 745 mmHg 84%
02:00 +16°C° 0 mm 1 mps 745 mmHg 87%
03:00 +16°C° 0 mm 1 mps 746 mmHg 85%
04:00 +18°C° 0 mm 1 mps 746 mmHg 84%
05:00 +18°C° 0 mm 1 mps 746 mmHg 82%
06:00 +20°C° 0 mm 1 mps 747 mmHg 76%
07:00 +22°C° 0 mm 1 mps 747 mmHg 69%
08:00 +24°C° 0 mm 2 mps 747 mmHg 62%
09:00 +25°C° 0 mm 2 mps 748 mmHg 58%
10:00 +26°C° 0 mm 2 mps 748 mmHg 54%
11:00 +27°C° 0 mm 2 mps 748 mmHg 50%
12:00 +27°C° 0 mm 2 mps 748 mmHg 48%
13:00 +28°C° 0 mm 2 mps 748 mmHg 46%
14:00 +28°C° 0 mm 2 mps 748 mmHg 44%
15:00 +27°C° 0.1 mm 2 mps 748 mmHg 54%
16:00 +25°C° 0.1 mm 2 mps 748 mmHg 64%
17:00 +23°C° 0.1 mm 2 mps 748 mmHg 74%
18:00 +22°C° 0.2 mm 1 mps 748 mmHg 79%
19:00 +21°C° 0.2 mm 1 mps 749 mmHg 83%
20:00 +20°C° 0.2 mm 1 mps 749 mmHg 88%
21:00 +20°C° 0 mm 1 mps 749 mmHg 90%
22:00 +19°C° 0 mm 1 mps 749 mmHg 92%
23:00 +18°C° 0 mm 1 mps 749 mmHg 93%

Day after tomorrow, 15 June, Tuesday

Time Temperature Precipitation Wind Pressure Humidity
00:00 +18°C° 0 mm 1 mps 749 mmHg 94%
01:00 +16°C° 0 mm 1 mps 749 mmHg 94%
02:00 +16°C° 0 mm 1 mps 749 mmHg 95%
03:00 +16°C° 0 mm 1 mps 749 mmHg 93%
04:00 +16°C° 0 mm 0 mps 749 mmHg 92%
05:00 +17°C° 0 mm 0 mps 749 mmHg 90%
06:00 +20°C° 0 mm 1 mps 749 mmHg 83%
07:00 +22°C° 0 mm 1 mps 748 mmHg 76%
08:00 +23°C° 0 mm 1 mps 748 mmHg 69%
09:00 +24°C° 0 mm 2 mps 748 mmHg 64%
10:00 +26°C° 0 mm 2 mps 748 mmHg 58%
11:00 +27°C° 0 mm 2 mps 747 mmHg 52%
12:00 +27°C° 0 mm 2 mps 747 mmHg 52%
13:00 +26°C° 0 mm 3 mps 747 mmHg 53%
14:00 +26°C° 0 mm 3 mps 746 mmHg 53%
15:00 +25°C° 0 mm 2 mps 746 mmHg 58%
16:00 +24°C° 0 mm 2 mps 746 mmHg 64%
17:00 +23°C° 0 mm 1 mps 746 mmHg 69%
18:00 +22°C° 0 mm 1 mps 746 mmHg 71%
19:00 +21°C° 0 mm 1 mps 746 mmHg 74%
20:00 +20°C° 0 mm 1 mps 746 mmHg 77%
21:00 +20°C° 0 mm 1 mps 746 mmHg 76%
22:00 +20°C° 0 mm 1 mps 746 mmHg 75%
23:00 +20°C° 0 mm 1 mps 745 mmHg 74%

16 June, Wednesday

Time Temperature Precipitation Wind Pressure Humidity
00:00 +19°C° 0 mm 1 mps 746 mmHg 74%
01:00 +18°C° 0 mm 2 mps 746 mmHg 74%
02:00 +17°C° 0 mm 2 mps 746 mmHg 74%
03:00 +17°C° 0 mm 2 mps 746 mmHg 77%
04:00 +16°C° 0 mm 2 mps 746 mmHg 80%
05:00 +16°C° 0 mm 3 mps 747 mmHg 83%
06:00 +17°C° 0 mm 3 mps 747 mmHg 80%
07:00 +18°C° 0 mm 3 mps 747 mmHg 77%
08:00 +18°C° 0 mm 3 mps 747 mmHg 74%
09:00 +20°C° 0 mm 4 mps 748 mmHg 64%
10:00 +21°C° 0 mm 4 mps 748 mmHg 53%
11:00 +23°C° 0 mm 5 mps 748 mmHg 43%
12:00 +23°C° 0 mm 5 mps 748 mmHg 40%
13:00 +23°C° 0 mm 5 mps 749 mmHg 37%
14:00 +25°C° 0 mm 5 mps 749 mmHg 33%
15:00 +23°C° 0 mm 4 mps 749 mmHg 36%
16:00 +22°C° 0 mm 4 mps 749 mmHg 39%
17:00 +22°C° 0 mm 4 mps 750 mmHg 42%
18:00 +20°C° 0 mm 3 mps 750 mmHg 50%
19:00 +18°C° 0 mm 3 mps 751 mmHg 58%
20:00 +16°C° 0 mm 2 mps 751 mmHg 67%
21:00 +15°C° 0 mm 2 mps 752 mmHg 68%
22:00 +14°C° 0 mm 2 mps 752 mmHg 68%
23:00 +13°C° 0 mm 2 mps 753 mmHg 69%

17 June, Thursday

Time Temperature Precipitation Wind Pressure Humidity
00:00 +12°C° 0 mm 2 mps 753 mmHg 68%
01:00 +10°C° 0 mm 2 mps 754 mmHg 67%
02:00 +10°C° 0 mm 2 mps 754 mmHg 66%
03:00 +10°C° 0 mm 2 mps 755 mmHg 66%
04:00 +12°C° 0 mm 2 mps 755 mmHg 66%
05:00 +13°C° 0 mm 2 mps 755 mmHg 66%
06:00 +15°C° 0 mm 2 mps 756 mmHg 59%
07:00 +17°C° 0 mm 3 mps 756 mmHg 51%
08:00 +19°C° 0 mm 3 mps 756 mmHg 44%
09:00 +20°C° 0 mm 3 mps 756 mmHg 42%
10:00 +21°C° 0 mm 3 mps 757 mmHg 39%
11:00 +22°C° 0 mm 3 mps 757 mmHg 36%
12:00 +22°C° 0 mm 3 mps 757 mmHg 36%
13:00 +24°C° 0 mm 3 mps 757 mmHg 36%
14:00 +24°C° 0 mm 3 mps 757 mmHg 36%
15:00 +24°C° 0 mm 3 mps 757 mmHg 39%
16:00 +24°C° 0 mm 2 mps 757 mmHg 42%
17:00 +24°C° 0 mm 2 mps 757 mmHg 45%
18:00 +22°C° 0 mm 1 mps 757 mmHg 53%
19:00 +20°C° 0 mm 1 mps 757 mmHg 60%
20:00 +16°C° 0 mm 0 mps 757 mmHg 67%
21:00 +16°C° 0 mm 1 mps 757 mmHg 68%
22:00 +15°C° 0 mm 1 mps 757 mmHg 69%
23:00 +14°C° 0 mm 1 mps 758 mmHg 69%

18 June, Friday

Time Temperature Precipitation Wind Pressure Humidity
00:00 +14°C° 0 mm 1 mps 758 mmHg 71%
01:00 +14°C° 0 mm 1 mps 758 mmHg 73%
02:00 +13°C° 0 mm 1 mps 758 mmHg 75%
03:00 +14°C° 0 mm 1 mps 759 mmHg 74%
04:00 +15°C° 0 mm 1 mps 759 mmHg 74%
05:00 +16°C° 0 mm 1 mps 759 mmHg 73%
06:00 +19°C° 0 mm 1 mps 759 mmHg 66%
07:00 +21°C° 0 mm 1 mps 759 mmHg 58%
08:00 +23°C° 0 mm 1 mps 759 mmHg 51%
09:00 +24°C° 0 mm 1 mps 759 mmHg 47%
10:00 +25°C° 0 mm 1 mps 758 mmHg 43%
11:00 +27°C° 0 mm 1 mps 758 mmHg 38%
12:00 +27°C° 0 mm 2 mps 758 mmHg 38%
13:00 +28°C° 0 mm 2 mps 758 mmHg 37%
14:00 +28°C° 0 mm 2 mps 757 mmHg 37%
15:00 +28°C° 0 mm 2 mps 757 mmHg 41%
16:00 +27°C° 0 mm 2 mps 757 mmHg 44%
17:00 +27°C° 0 mm 2 mps 757 mmHg 48%
18:00 +25°C° 0 mm 2 mps 757 mmHg 56%
19:00 +23°C° 0 mm 2 mps 757 mmHg 64%
20:00 +19°C° 0 mm 2 mps 757 mmHg 73%
21:00 +19°C° 0 mm 2 mps 757 mmHg 75%
22:00 +18°C° 0 mm 2 mps 757 mmHg 76%
23:00 +17°C° 0 mm 2 mps 757 mmHg 78%
Show more